Regional Weather Roundup
Issued by NWS

Home | Current Version | Previous Version | Text Only | Print | Product List | Glossary Off
Versions: 1 2 3 4 5 6 7 8 9 10 11 12 13 14 15 16 17 18 19 20 21 22 23 24 25 26 27 28 29 30 31 32 33 34 35 36 37 38 39 40 41 42 43 44 45 46 47 48 49 50

000
ASUS43 KDTX 211810
RWRMI
MICHIGAN HOURLY REGIONAL WEATHER ROUNDUP
NATIONAL WEATHER SERVICE DETROIT/PONTIAC MI
200 PM EDT SAT APR 21 2018

NOTE: "FAIR" INDICATES FEW OR NO CLOUDS BELOW 12,000 FEET WITH NO
SIGNIFICANT WEATHER AND/OR OBSTRUCTION TO VISIBILITY.

MIZ047>049-052>055-059>063-066>070-074>076-081>083-211900-
SOUTHEAST LOWER MICHIGAN

CITY           SKY/WX    TMP DP  RH WIND       PRES   REMARKS
ADRIAN         FAIR      51  26  37 W5        30.46F
6HR MIN TEMP:  32; 6HR MAX TEMP:  52;

ALMA           FAIR      55  29  37 S7        30.44F
6HR MIN TEMP:  33; 6HR MAX TEMP:  56;

ANN ARBOR      FAIR      53  28  38 CALM      30.45F
BAD AXE        FAIR      58  14  17 SW8       30.44F
6HR MIN TEMP:  34; 6HR MAX TEMP:  58;

CARO           FAIR      58  22  25 W9        30.43F
DETROIT CITY   FAIR      51  18  27 CALM      30.46F
6HR MIN TEMP:  35; 6HR MAX TEMP:  51;

DETROIT        CLOUDY    53  24  32 VRB5      30.46F
6HR MIN TEMP:  38; 6HR MAX TEMP:  53;

FLINT          FAIR      55  23  28 VRB3      30.44F
6HR MIN TEMP:  34; 6HR MAX TEMP:  55;

GROSSE ILE     FAIR      45  29  53 S7        30.46F
6HR MIN TEMP:  36; 6HR MAX TEMP:  45;

HILLSDALE      PTSUNNY   50  21  32 S3        30.43F
HOWELL         FAIR      53  24  31 SW3       30.44F
6HR MIN TEMP:  34; 6HR MAX TEMP:  54;


CITY           SKY/WX    TMP DP  RH WIND       PRES   REMARKS
JACKSON        FAIR      53  25  33 S8        30.43F
6HR MIN TEMP:  35; 6HR MAX TEMP:  53;

LAMBERTVILLE   FAIR      53  29  39 E5        30.45F
6HR MIN TEMP:  32; 6HR MAX TEMP:  53;

LANSING        FAIR      56  26  31 S8        30.43F
6HR MIN TEMP:  38; 6HR MAX TEMP:  57;

LAPEER         FAIR      56  22  27 SW7       30.44F
6HR MIN TEMP:  30; 6HR MAX TEMP:  56;

MASON          FAIR      57  19  22 W6        30.43F
6HR MIN TEMP:  36; 6HR MAX TEMP:  57;

MONROE         FAIR      50  25  37 SE6       30.46S
6HR MIN TEMP:  32; 6HR MAX TEMP:  50;

MT. CLEMENS    CLOUDY    49  13  23 S5        30.45F
6HR MIN TEMP:  33; 6HR MAX TEMP:  49;

PONTIAC        CLOUDY    52  24  33 SE6       30.43F
6HR MIN TEMP:  34; 6HR MAX TEMP:  53;

PORT HOPE        N/A     40  33  76 E12       30.44F WCI  33
6HR MIN TEMP:  34; 6HR MAX TEMP:  43;

PORT HURON     FAIR      54  16  22 E6        30.46F
TRI CITIES     FAIR      56  29  35 SW9       30.43F
6HR MIN TEMP:  36; 6HR MAX TEMP:  57;

MIDLAND        FAIR      56  27  33 CALM      30.42F
6HR MIN TEMP:  31; 6HR MAX TEMP:  57;

TROY           FAIR      53  19  25 E3        30.47F
SAGINAW HB     FAIR      55  27  33 SW7       30.43F
$$
MIZ043>046-050>051-056>058-064>065-071>073-077>080-211900-
SOUTHWEST LOWER MICHIGAN

CITY           SKY/WX    TMP DP  RH WIND       PRES   REMARKS
BATTLE CREEK   FAIR      53  29  39 S10       30.43F
6HR MIN TEMP:  39; 6HR MAX TEMP:  54;

BENTON HARBOR  FAIR      53  23  31 W7        30.43F
6HR MIN TEMP:  32; 6HR MAX TEMP:  54;

BIG RAPIDS     FAIR      54  10  16 NE3       30.41F
6HR MIN TEMP:  30; 6HR MAX TEMP:  55;

COLDWATER      FAIR      53  26  34 SE6       30.43F
6HR MIN TEMP:  40; 6HR MAX TEMP:  54;

FREMONT        FAIR      55   2  11 CALM      30.42F
6HR MIN TEMP:  31; 6HR MAX TEMP:  55;

HOLLAND        FAIR      53  23  31 W6        30.44F
6HR MIN TEMP:  34; 6HR MAX TEMP:  53;

GRAND RAPIDS   CLOUDY    55  26  32 VRB3      30.42F
6HR MIN TEMP:  33; 6HR MAX TEMP:  56;

IONIA          FAIR      55  27  33 CALM      30.41F
6HR MIN TEMP:  32; 6HR MAX TEMP:  55;

KALAMAZOO      FAIR      55  29  36 S6        30.43F
6HR MIN TEMP:  35; 6HR MAX TEMP:  55;

LUDINGTON      FAIR      53  16  23 W5        30.43F
6HR MIN TEMP:  28; 6HR MAX TEMP:  54;

MARSHALL       FAIR      53  24  32 SE7       30.42F
6HR MIN TEMP:  39; 6HR MAX TEMP:  53;

MOUNT PLEASANT FAIR      56  23  27 CALM      30.42F
6HR MIN TEMP:  35; 6HR MAX TEMP:  58;

MUSKEGON       CLOUDY    55  25  31 W5        30.43F
6HR MIN TEMP:  33; 6HR MAX TEMP:  55;

SOUTH HAVEN    FAIR      54  17  24 W5        30.43F
$$
MIZ016>042-211900-
NORTHERN LOWER MICHIGAN

CITY           SKY/WX    TMP DP  RH WIND       PRES   REMARKS
ALPENA         FAIR      51  17  26 S3        30.42F
6HR MIN TEMP:  29; 6HR MAX TEMP:  57;

BEAVER ISLAND  FAIR      48  18  29 SW10G16   30.42F
6HR MIN TEMP:  36; 6HR MAX TEMP:  50;

BELLAIRE       FAIR      55  12  18 CALM      30.42F
6HR MIN TEMP:  28; 6HR MAX TEMP:  55;

CADILLAC       FAIR      54  16  22 E3        30.40F
CHARLEVOIX     FAIR      51  22  32 NW6       30.46F
6HR MIN TEMP:  32; 6HR MAX TEMP:  52;

FRANKFORT      FAIR      51  12  21 W6        30.44S
GAYLORD        FAIR      54  10  17 CALM      30.40F
6HR MIN TEMP:  28; 6HR MAX TEMP:  54;

GRAYLING       FAIR      51  15  23 NE5       30.40F
6HR MIN TEMP:  26; 6HR MAX TEMP:  52;

HARBOR SPRINGS FAIR      53  14  21 SW6       30.43F
HOUGHTON LAKE  FAIR      53  13  20 W6        30.42F
6HR MIN TEMP:  30; 6HR MAX TEMP:  54;

MANISTEE       FAIR      54  15  21 W10       30.43F
OSCODA         FAIR      53  22  29 S5        30.43F
6HR MIN TEMP:  29; 6HR MAX TEMP:  53;

PELLSTON       FAIR      54  13  19 W8        30.42F
6HR MIN TEMP:  28; 6HR MAX TEMP:  56;

ROGERS CITY    FAIR      46  18  32 NE3       30.44S
TRAVERSE CITY  FAIR      55  16  21 VRB6      30.41F
6HR MIN TEMP:  32; 6HR MAX TEMP:  55;

$$
MIZ007>008-015-211900-
EASTERN UPPER MICHIGAN

CITY           SKY/WX    TMP DP  RH WIND       PRES   REMARKS
MACKINAC ISLAN FAIR      49  15  26 W8        30.42F
6HR MIN TEMP:  36; 6HR MAX TEMP:  49;

NEWBERRY       FAIR      47  18  31 S7        30.39F
6HR MIN TEMP:  30; 6HR MAX TEMP:  49;

S. S. MARIE    FAIR      55  20  25 SE5       30.39F
6HR MIN TEMP:  32; 6HR MAX TEMP:  56;

MUNISING         N/A     38  30  73 NE9       30.39F WCI  31
6HR MIN TEMP:  31; 6HR MAX TEMP:  49;

$$
MIZ004>006-011>014-085-211900-
CENTRAL UPPER MICHIGAN

CITY           SKY/WX    TMP DP  RH WIND       PRES   REMARKS
MANISTIQUE     FAIR      44  25  47 S7        30.40F
6HR MIN TEMP:  32; 6HR MAX TEMP:  44;

ESCANABA       FAIR      52  22  30 SE8       30.39F
6HR MIN TEMP:  33; 6HR MAX TEMP:  52;

MENOMINEE      FAIR      57  14  18 SW9       30.40F
6HR MIN TEMP:  37; 6HR MAX TEMP:  57;

SAWYER-GWINN   SUNNY     54  10  17 NE5       30.38F
$$
MIZ001>003-009>011-084-211900-
WESTERN UPPER MICHIGAN

CITY           SKY/WX    TMP DP  RH WIND       PRES   REMARKS
IRON MOUNTAIN  FAIR      59  13  16 N6        30.35F
6HR MIN TEMP:  30; 6HR MAX TEMP:  60;

HOUGHTON       FAIR      52  22  30 NW7       30.37F HAZE
6HR MIN TEMP:  33; 6HR MAX TEMP:  57;

COPPER HARBOR    N/A     43  24  47 CALM      30.39F
6HR MIN TEMP:  32; 6HR MAX TEMP:  48;

IRONWOOD       FAIR      54  13  19 W5        30.38F
6HR MIN TEMP:  24; 6HR MAX TEMP:  55;

$$

ABBREVIATIONS USED IN REMARKS
   TC - TEMPERATURE IN CELSIUS
  WCI - WIND CHILL INDEX
   HX - HEAT INDEX
  VSB - VISIBILITY





USA.gov is the U.S. government's official web portal to all federal, state and local government web resources and services.